| DS18B20 | SHTC3 | ||||||
|---|---|---|---|---|---|---|---|
| ID | Date d/m/Y & Time | data1 สูง | data2 ต่ำ | data3 นอก | temp pcb | hum pcb | Time |
| 7692 | 01/04/2026 03:33:23 | 28.8  | 28.8  | 25.5  | 28.6  | 73.1  | 03:33 |
| 7691 | 01/04/2026 03:28:41 | 28.8  | 28.8  | 25.8  | 28.6  | 73.1  | 03:28 |
| 7690 | 01/04/2026 03:24:00 | 28.8  | 28.8  | 25.6  | 28.6  | 73.1  | 03:24 |
| 7689 | 01/04/2026 03:19:18 | 28.9  | 28.8  | 26.0  | 28.6  | 73.0  | 03:19 |
| 7688 | 01/04/2026 03:14:37 | 28.9  | 28.8  | 26.4  | 28.6  | 73.0  | 03:14 |
| 7687 | 01/04/2026 03:09:55 | 28.9  | 28.9  | 26.2  | 28.7  | 73.0  | 03:09 |
| 7686 | 01/04/2026 03:05:13 | 28.9  | 28.9  | 26.2  | 28.7  | 72.9  | 03:05 |
| 7685 | 01/04/2026 03:00:31 | 28.9  | 28.9  | 26.7  | 28.7  | 72.9  | 03:00 |
| 7684 | 01/04/2026 02:55:50 | 28.9  | 28.9  | 27.2  | 28.7  | 72.9  | 02:55 |
| 7683 | 01/04/2026 02:51:06 | 29.0  | 28.9  | 27.3  | 28.7  | 72.9  | 02:51 |
| 7682 | 01/04/2026 02:46:24 | 29.0  | 28.9  | 27.4  | 28.9  | 72.9  | 02:46 |
| 7681 | 01/04/2026 02:41:43 | 29.0  | 28.9  | 27.2  | 28.9  | 73.0  | 02:41 |
| 7680 | 01/04/2026 02:36:59 | 29.0  | 29.0  | 27.2  | 28.9  | 73.0  | 02:36 |
| 7679 | 01/04/2026 02:32:17 | 29.0  | 29.0  | 27.2  | 28.9  | 73.1  | 02:32 |
| 7678 | 01/04/2026 02:27:36 | 29.1  | 29.0  | 27.4  | 28.9  | 72.9  | 02:27 |
| 7677 | 01/04/2026 02:22:54 | 29.1  | 29.1  | 27.2  | 28.9  | 73.0  | 02:22 |
| 7676 | 01/04/2026 02:18:12 | 29.1  | 29.0  | 27.2  | 28.9  | 73.0  | 02:18 |
| 7675 | 01/04/2026 02:13:31 | 29.1  | 29.1  | 27.1  | 28.8  | 73.0  | 02:13 |
| 7674 | 01/04/2026 02:08:49 | 29.1  | 29.1  | 27.2  | 28.9  | 73.0  | 02:08 |
| 7673 | 01/04/2026 02:04:07 | 29.1  | 29.1  | 27.4  | 28.9  | 73.0  | 02:04 |
| 7672 | 01/04/2026 01:59:25 | 29.1  | 29.1  | 27.4  | 28.8  | 73.0  | 01:59 |
| 7671 | 01/04/2026 01:54:43 | 29.1  | 29.1  | 27.5  | 28.9  | 72.9  | 01:54 |
| 7670 | 01/04/2026 01:50:01 | 29.2  | 29.1  | 27.5  | 29.1  | 73.2  | 01:50 |
| 7669 | 01/04/2026 01:45:19 | 29.2  | 29.1  | 27.5  | 29.0  | 72.9  | 01:45 |